DW9768 Weather Reports


Display with metric or nautical units.
time (UTC)temp
F
wind
direction
speed
MPH
gust
MPH
rain 1hr
in
rain 24hr
in
rain mn
in
humidity
%
barometer
mb
20260508190024 52 197 7.0 10.0 0.00 0.00 0.00 60 1021.2
20260508184517 52 198 7.0 10.0 0.00 0.00 0.00 56 1021.2
20260508183015 53 184 6.0 11.0 0.00 0.00 0.00 57 1021.2
20260508181517 53 193 7.0 14.0 0.00 0.00 0.00 56 1021.0
20260508180014 53 184 9.0 15.0 0.00 0.00 0.00 53 1020.9
20260508174514 53 159 11.0 19.0 0.00 0.00 0.00 50 1020.8
20260508173012 54 191 11.0 18.0 0.00 0.00 0.00 54 1020.9
20260508171513 54 175 10.0 20.0 0.00 0.00 0.00 52 1020.8
20260508170005 54 165 14.0 23.0 0.00 0.00 0.00 50 1020.7
20260508164504 53 190 17.0 23.0 0.00 0.00 0.00 51 1020.7
20260508163003 53 166 14.0 22.0 0.00 0.00 0.00 53 1020.6
20260508161502 52 209 10.0 15.0 0.00 0.00 0.00 60 1020.7
20260508160002 51 223 14.0 18.0 0.00 0.00 0.00 66 1020.7
20260508154605 51 226 13.0 18.0 0.00 0.00 0.00 59 1020.8
20260508153100 53 194 13.0 21.0 0.00 0.00 0.00 47 1020.8
20260508151601 53 213 9.0 17.0 0.00 0.00 0.00 53 1020.8
20260508150058 52 221 13.0 22.0 0.00 0.00 0.00 50 1020.8
20260508144557 54 185 12.0 22.0 0.00 0.00 0.00 44 1020.8
20260508143101 53 200 12.0 19.0 0.00 0.00 0.00 46 1020.9
20260508141614 54 173 15.0 22.0 0.00 0.00 0.00 47 1020.9
20260508140054 53 170 14.0 22.0 0.00 0.00 0.00 47 1020.9
20260508134602 53 196 12.0 19.0 0.00 0.00 0.00 49 1021.0
20260508133048 53 200 14.0 19.0 0.00 0.00 0.00 53 1021.0
20260508131546 53 180 11.0 15.0 0.00 0.00 0.00 55 1021.1
20260508130043 52 213 10.0 17.0 0.00 0.00 0.00 61 1021.1
20260508124548 52 229 12.0 16.0 0.00 0.00 0.00 61 1021.1
20260508123047 52 222 13.0 17.0 0.00 0.00 0.00 60 1021.1
20260508121539 52 215 10.0 17.0 0.00 0.00 0.00 61 1021.0
20260508120137 52 190 9.0 15.0 0.00 0.00 0.00 56 1020.9
20260508114538 52 180 9.0 16.0 0.00 0.00 0.00 55 1020.9
20260508113047 52 175 11.0 17.0 0.00 0.00 0.00 56 1020.8
20260508111530 51 190 12.0 18.0 0.00 0.00 0.00 54 1020.9
20260508110029 51 180 11.0 16.0 0.00 0.00 0.00 58 1020.9
20260508104527 51 190 12.0 16.0 0.00 0.00 0.00 56 1020.9
20260508103032 51 184 9.0 15.0 0.00 0.00 0.00 60 1021.0
20260508101529 51 193 10.0 15.0 0.00 0.00 0.00 56 1020.8
20260508100021 50 171 10.0 15.0 0.00 0.00 0.00 59 1020.8
20260508094520 50 189 11.0 19.0 0.00 0.00 0.00 59 1020.9
20260508093018 50 163 9.0 17.0 0.00 0.00 0.00 58 1020.8
20260508091529 49 194 10.0 17.0 0.00 0.00 0.00 62 1020.8
20260508090024 49 161 14.0 19.0 0.00 0.00 0.00 62 1020.6
20260508084513 48 174 12.0 16.0 0.00 0.00 0.00 63 1020.7
20260508083013 48 157 13.0 16.0 0.00 0.00 0.00 65 1020.7
20260508081510 48 162 11.0 16.0 0.00 0.00 0.00 65 1020.7
20260508080009 48 171 13.0 22.0 0.00 0.00 0.00 66 1020.7
20260508074507 48 153 14.0 20.0 0.00 0.00 0.00 65 1020.6
20260508073003 47 142 13.0 21.0 0.00 0.00 0.00 69 1020.4
20260508071506 47 156 16.0 20.0 0.00 0.00 0.00 68 1020.4
20260508070100 47 129 12.0 18.0 0.00 0.00 0.00 70 1020.3
20260508064558 46 123 11.0 15.0 0.00 0.00 0.00 74 1020.1
20260508063058 46 154 10.0 15.0 0.00 0.00 0.00 74 1020.0
20260508061555 46 151 12.0 16.0 0.00 0.00 0.00 76 1020.0
20260508060054 45 155 11.0 19.0 0.00 0.00 0.00 76 1019.9
20260508054552 45 151 11.0 15.0 0.00 0.00 0.00 77 1019.8
20260508053052 45 155 9.0 12.0 0.00 0.00 0.00 78 1019.6
20260508051550 45 151 8.0 14.0 0.00 0.00 0.00 78 1019.6
20260508050047 45 142 9.0 14.0 0.00 0.00 0.00 78 1019.4
20260508044545 45 145 9.0 12.0 0.00 0.00 0.00 78 1019.3
20260508043046 45 156 8.0 11.0 0.00 0.00 0.00 77 1019.2
20260508041542 45 148 7.0 11.0 0.00 0.00 0.00 77 1019.2
20260508040041 45 157 9.0 12.0 0.00 0.00 0.00 76 1019.1
20260508034539 45 147 8.0 13.0 0.00 0.00 0.00 76 1019.1
20260508033036 45 150 9.0 14.0 0.00 0.00 0.00 76 1019.0
20260508031534 45 96 10.0 16.0 0.00 0.00 0.00 75 1018.8
20260508030032 45 142 11.0 15.0 0.00 0.00 0.00 75 1018.7
20260508024535 45 146 9.0 12.0 0.00 0.00 0.00 74 1018.7
20260508023028 44 154 5.0 10.0 0.00 0.00 0.00 73 1018.6
20260508021532 45 117 3.0 10.0 0.00 0.00 0.00 72 1018.6
20260508020022 44 140 5.0 8.0 0.00 0.00 0.00 73 1018.6
20260508014521 44 71 2.0 6.0 0.00 0.00 0.00 74 1018.6
20260508013033 44 138 2.0 4.0 0.00 0.00 0.00 76 1018.5
20260508011520 44 136 1.0 5.0 0.00 0.00 0.00 76 1018.5
20260508010017 44 117 2.0 5.0 0.00 0.00 0.00 75 1018.4
20260508004532 44 117 1.0 6.0 0.00 0.00 0.00 75 1018.3
20260508003021 44 109 3.0 6.0 0.00 0.00 0.00 73 1018.4
20260508001518 44 159 2.0 5.0 0.00 0.00 0.00 75 1018.3
20260508000013 44 171 1.0 4.0 0.00 0.00 0.00 75 1018.4
20260507234514 44 202 3.0 5.0 0.00 0.00 0.00 75 1018.4
20260507233022 44 154 3.0 5.0 0.00 0.00 0.00 75 1018.4
20260507231510 44 149 3.0 5.0 0.00 0.00 0.00 74 1018.5
20260507230109 44 158 2.0 5.0 0.00 0.00 0.00 74 1018.5
20260507224506 44 150 1.0 5.0 0.00 0.00 0.00 72 1018.5
20260507223004 45 195 3.0 6.0 0.00 0.00 0.00 72 1018.4
20260507221505 45 207 5.0 6.0 0.00 0.00 0.00 71 1018.4
20260507220058 45 198 4.0 6.0 0.00 0.00 0.00 70 1018.4
20260507214618 45 193 3.0 5.0 0.00 0.00 0.00 68 1018.4
20260507213107 45 173 2.0 4.0 0.00 0.00 0.00 68 1018.3
20260507211615 45 211 3.0 5.0 0.00 0.00 0.00 67 1018.2
20260507210056 46 223 4.0 6.0 0.00 0.00 0.00 67 1018.2
20260507204606 46 226 5.0 7.0 0.00 0.00 0.00 67 1018.2
20260507203059 46 229 6.0 8.0 0.00 0.00 0.00 65 1018.2
20260507201552 46 225 5.0 7.0 0.00 0.00 0.00 65 1018.1
20260507200050 46 238 5.0 7.0 0.00 0.00 0.00 61 1017.9
20260507194616 47 252 5.0 8.0 0.00 0.00 0.00 65 1017.8
20260507193046 47 244 6.0 8.0 0.00 0.00 0.00 63 1017.7
20260507191550 46 261 1.0 3.0 0.00 0.00 0.00 63 1017.5